Time,TemperatureF,DewpointF,PressureIn,WindDirection,WindDirectionDegrees,WindSpeedMPH,WindSpeedGustMPH,Humidity,HourlyPrecipIn,Conditions,Clouds,dailyrainin,SoftwareType,DateUTC
2013-07-15 00:01:00,62.5,54.8,29.81,WSW,253,2.0,2.0,76,0.00,,,0.00,WeatherCatV1.14B232,2013-07-15 06:01:00,
2013-07-15 00:06:00,62.3,54.6,29.81,South,172,1.0,2.0,76,0.00,,,0.00,WeatherCatV1.14B232,2013-07-15 06:06:00,
2013-07-15 00:10:00,62.2,54.5,29.81,SSW,210,1.0,3.0,76,0.00,,,0.00,WeatherCatV1.14B232,2013-07-15 06:10:00,
2013-07-15 00:15:00,62.1,54.4,29.81,SSE,159,0.0,0.0,76,0.00,,,0.00,WeatherCatV1.14B232,2013-07-15 06:15:00,
2013-07-15 00:20:00,62.0,54.3,29.81,South,172,0.0,0.0,76,0.00,,,0.00,WeatherCatV1.14B232,2013-07-15 06:20:00,
2013-07-15 00:25:00,61.7,54.4,29.81,South,172,0.0,0.0,77,0.00,,,0.00,WeatherCatV1.14B232,2013-07-15 06:25:00,
2013-07-15 00:30:00,61.3,54.4,29.81,South,172,0.0,0.0,78,0.00,,,0.00,WeatherCatV1.14B232,2013-07-15 06:30:00,
2013-07-15 00:35:00,61.1,53.8,29.81,South,171,0.0,2.0,77,0.00,,,0.00,WeatherCatV1.14B232,2013-07-15 06:35:00,
2013-07-15 00:40:00,61.1,54.2,29.81,South,170,0.0,0.0,78,0.00,,,0.00,WeatherCatV1.14B232,2013-07-15 06:40:00,
2013-07-15 00:45:00,61.1,54.2,29.81,SSE,165,0.0,1.0,78,0.00,,,0.00,WeatherCatV1.14B232,2013-07-15 06:45:00,
2013-07-15 00:50:00,61.0,54.1,29.81,East,101,0.0,1.0,78,0.00,,,0.00,WeatherCatV1.14B232,2013-07-15 06:50:00,
2013-07-15 00:55:00,60.8,54.2,29.82,East,85,0.0,1.0,79,0.00,,,0.00,WeatherCatV1.14B232,2013-07-15 06:55:00,
2013-07-15 01:00:00,60.7,54.1,29.82,ENE,77,0.0,0.0,79,0.00,,,0.00,WeatherCatV1.14B232,2013-07-15 07:00:00,
2013-07-15 01:05:00,60.4,54.2,29.81,WSW,257,0.0,1.0,80,0.00,,,0.00,WeatherCatV1.14B232,2013-07-15 07:05:00,
2013-07-15 01:10:00,60.1,53.9,29.82,WSW,257,0.0,0.0,80,0.00,,,0.00,WeatherCatV1.14B232,2013-07-15 07:10:00,
2013-07-15 01:15:00,59.9,53.7,29.81,West,259,0.0,0.0,80,0.00,,,0.00,WeatherCatV1.14B232,2013-07-15 07:15:00,
2013-07-15 01:20:00,59.9,53.7,29.82,West,259,0.0,0.0,80,0.00,,,0.00,WeatherCatV1.14B232,2013-07-15 07:20:00,
2013-07-15 01:25:00,59.8,53.6,29.81,West,259,0.0,0.0,80,0.00,,,0.00,WeatherCatV1.14B232,2013-07-15 07:25:00,
2013-07-15 01:30:00,59.7,53.9,29.81,West,259,0.0,0.0,81,0.00,,,0.00,WeatherCatV1.14B232,2013-07-15 07:30:00,
2013-07-15 01:35:00,59.8,53.6,29.81,WSW,252,0.0,0.0,80,0.00,,,0.00,WeatherCatV1.14B232,2013-07-15 07:35:00,
2013-07-15 01:40:00,59.8,54.0,29.81,WSW,249,2.0,3.0,81,0.00,,,0.00,WeatherCatV1.14B232,2013-07-15 07:40:00,
2013-07-15 01:45:00,59.4,53.6,29.81,ENE,68,0.0,1.0,81,0.00,,,0.00,WeatherCatV1.14B232,2013-07-15 07:45:00,
2013-07-15 01:50:00,59.3,53.5,29.81,WSW,253,0.0,1.0,81,0.00,,,0.00,WeatherCatV1.14B232,2013-07-15 07:50:00,
2013-07-15 01:55:00,58.9,53.4,29.81,WSW,253,0.0,0.0,82,0.00,,,0.00,WeatherCatV1.14B232,2013-07-15 07:55:00,
2013-07-15 02:00:00,58.6,53.1,29.81,WSW,253,0.0,0.0,82,0.00,,,0.00,WeatherCatV1.14B232,2013-07-15 08:00:00,
2013-07-15 02:05:00,58.5,53.4,29.81,SSE,158,1.0,1.0,83,0.00,,,0.00,WeatherCatV1.14B232,2013-07-15 08:05:00,
2013-07-15 02:10:00,58.4,52.9,29.81,SSW,204,0.0,0.0,82,0.00,,,0.00,WeatherCatV1.14B232,2013-07-15 08:10:00,
2013-07-15 02:15:00,58.4,53.3,29.81,SSW,207,0.0,0.0,83,0.00,,,0.00,WeatherCatV1.14B232,2013-07-15 08:15:00,
2013-07-15 02:20:00,58.5,53.0,29.81,SSW,207,0.0,0.0,82,0.00,,,0.00,WeatherCatV1.14B232,2013-07-15 08:20:00,
2013-07-15 02:25:00,58.6,53.1,29.81,SSW,207,0.0,1.0,82,0.00,,,0.00,WeatherCatV1.14B232,2013-07-15 08:25:00,
2013-07-15 02:30:00,58.6,52.8,29.81,SSW,211,0.0,1.0,81,0.00,,,0.00,WeatherCatV1.14B232,2013-07-15 08:30:00,
2013-07-15 02:35:00,58.7,52.5,29.81,South,174,0.0,0.0,80,0.00,,,0.00,WeatherCatV1.14B232,2013-07-15 08:35:00,
2013-07-15 02:40:00,58.7,52.9,29.81,South,174,0.0,0.0,81,0.00,,,0.00,WeatherCatV1.14B232,2013-07-15 08:40:00,
2013-07-15 02:45:00,58.7,52.5,29.81,SW,217,0.0,2.0,80,0.00,,,0.00,WeatherCatV1.14B232,2013-07-15 08:45:00,
2013-07-15 02:50:00,58.8,52.6,29.81,SW,217,0.0,0.0,80,0.00,,,0.00,WeatherCatV1.14B232,2013-07-15 08:50:00,
2013-07-15 02:55:00,59.0,52.8,29.80,SW,217,0.0,0.0,80,0.00,,,0.00,WeatherCatV1.14B232,2013-07-15 08:55:00,
2013-07-15 03:00:00,59.0,53.2,29.81,SW,217,1.0,1.0,81,0.00,,,0.00,WeatherCatV1.14B232,2013-07-15 09:00:00,
2013-07-15 03:05:00,59.1,52.9,29.80,WSW,243,0.0,0.0,80,0.00,,,0.00,WeatherCatV1.14B232,2013-07-15 09:05:00,
2013-07-15 03:10:00,58.9,52.7,29.80,WSW,243,0.0,0.0,80,0.00,,,0.00,WeatherCatV1.14B232,2013-07-15 09:10:00,
2013-07-15 03:15:00,58.7,52.9,29.80,WSW,243,0.0,0.0,81,0.00,,,0.00,WeatherCatV1.14B232,2013-07-15 09:15:00,
2013-07-15 03:20:00,58.6,52.8,29.80,WSW,243,0.0,0.0,81,0.00,,,0.00,WeatherCatV1.14B232,2013-07-15 09:20:00,
2013-07-15 03:25:00,58.5,52.7,29.80,WSW,243,0.0,0.0,81,0.00,,,0.00,WeatherCatV1.14B232,2013-07-15 09:25:00,
2013-07-15 03:30:00,58.5,52.3,29.80,WNW,288,1.0,1.0,80,0.00,,,0.00,WeatherCatV1.14B232,2013-07-15 09:30:00,
2013-07-15 03:35:00,58.3,52.8,29.80,NE,36,0.0,1.0,82,0.00,,,0.00,WeatherCatV1.14B232,2013-07-15 09:35:00,
2013-07-15 03:40:00,58.5,52.7,29.80,NNE,29,0.0,0.0,81,0.00,,,0.00,WeatherCatV1.14B232,2013-07-15 09:40:00,
2013-07-15 03:45:00,58.6,52.4,29.80,NW,315,0.0,0.0,80,0.00,,,0.00,WeatherCatV1.14B232,2013-07-15 09:45:00,
2013-07-15 03:50:00,58.4,52.3,29.80,NW,315,0.0,0.0,80,0.00,,,0.00,WeatherCatV1.14B232,2013-07-15 09:50:00,
2013-07-15 03:55:00,58.2,52.4,29.80,NW,315,0.0,0.0,81,0.00,,,0.00,WeatherCatV1.14B232,2013-07-15 09:55:00,
2013-07-15 04:00:00,57.9,52.1,29.80,NW,315,0.0,0.0,81,0.00,,,0.00,WeatherCatV1.14B232,2013-07-15 10:00:00,
2013-07-15 04:05:00,57.3,52.2,29.80,SSW,211,0.0,0.0,83,0.00,,,0.00,WeatherCatV1.14B232,2013-07-15 10:05:00,
2013-07-15 04:10:00,56.8,52.3,29.81,SSW,211,0.0,1.0,85,0.00,,,0.00,WeatherCatV1.14B232,2013-07-15 10:10:00,
2013-07-15 04:15:00,56.4,52.3,29.81,SSW,211,0.0,0.0,86,0.00,,,0.00,WeatherCatV1.14B232,2013-07-15 10:15:00,
2013-07-15 04:20:00,56.2,52.1,29.81,SSW,211,0.0,0.0,86,0.00,,,0.00,WeatherCatV1.14B232,2013-07-15 10:20:00,
2013-07-15 04:25:00,55.8,51.7,29.81,SSW,211,0.0,0.0,86,0.00,,,0.00,WeatherCatV1.14B232,2013-07-15 10:25:00,
2013-07-15 04:30:00,55.5,51.4,29.81,SSW,211,0.0,0.0,86,0.00,,,0.00,WeatherCatV1.14B232,2013-07-15 10:30:00,
2013-07-15 04:35:00,55.2,51.4,29.81,SSW,211,0.0,0.0,87,0.00,,,0.00,WeatherCatV1.14B232,2013-07-15 10:35:00,
2013-07-15 04:40:00,54.8,51.0,29.81,SSW,211,0.0,0.0,87,0.00,,,0.00,WeatherCatV1.14B232,2013-07-15 10:40:00,
2013-07-15 04:45:00,54.6,51.1,29.81,SSW,211,0.0,0.0,88,0.00,,,0.00,WeatherCatV1.14B232,2013-07-15 10:45:00,
2013-07-15 04:50:00,54.5,51.3,29.81,SSW,211,0.0,0.0,89,0.00,,,0.00,WeatherCatV1.14B232,2013-07-15 10:50:00,
2013-07-15 04:55:00,54.3,51.1,29.82,SW,215,0.0,0.0,89,0.00,,,0.00,WeatherCatV1.14B232,2013-07-15 10:55:00,
2013-07-15 05:00:00,54.3,51.1,29.82,SW,226,0.0,0.0,89,0.00,,,0.00,WeatherCatV1.14B232,2013-07-15 11:00:00,
2013-07-15 05:05:00,54.0,50.8,29.82,SW,226,0.0,0.0,89,0.00,,,0.00,WeatherCatV1.14B232,2013-07-15 11:05:00,
2013-07-15 05:10:00,53.9,50.1,29.82,SSW,212,0.0,2.0,87,0.00,,,0.00,WeatherCatV1.14B232,2013-07-15 11:10:00,
2013-07-15 05:15:00,53.9,50.1,29.82,SSW,211,0.0,0.0,87,0.00,,,0.00,WeatherCatV1.14B232,2013-07-15 11:15:00,
2013-07-15 05:20:00,53.9,50.1,29.82,SSW,211,0.0,0.0,87,0.00,,,0.00,WeatherCatV1.14B232,2013-07-15 11:20:00,
2013-07-15 05:25:00,53.7,50.2,29.82,SSW,212,0.0,0.0,88,0.00,,,0.00,WeatherCatV1.14B232,2013-07-15 11:25:00,
2013-07-15 05:30:00,53.5,50.3,29.82,SSW,211,0.0,0.0,89,0.00,,,0.00,WeatherCatV1.14B232,2013-07-15 11:30:00,
2013-07-15 05:35:00,53.3,50.1,29.82,SSW,212,0.0,0.0,89,0.00,,,0.00,WeatherCatV1.14B232,2013-07-15 11:35:00,
2013-07-15 05:40:00,53.1,50.2,29.82,SSW,212,0.0,0.0,90,0.00,,,0.00,WeatherCatV1.14B232,2013-07-15 11:40:00,
2013-07-15 05:45:00,52.9,50.0,29.82,SSW,212,0.0,0.0,90,0.00,,,0.00,WeatherCatV1.14B232,2013-07-15 11:45:00,
2013-07-15 05:50:00,52.6,49.5,29.82,SSW,212,0.0,0.0,89,0.00,,,0.00,WeatherCatV1.14B232,2013-07-15 11:50:00,
2013-07-15 05:55:00,52.5,49.7,29.82,SSW,212,0.0,0.0,90,0.00,,,0.00,WeatherCatV1.14B232,2013-07-15 11:55:00,
2013-07-15 06:00:00,52.4,49.6,29.82,SSW,211,0.0,0.0,90,0.00,,,0.00,WeatherCatV1.14B232,2013-07-15 12:00:00,
2013-07-15 06:05:00,52.3,49.8,29.83,SSW,211,0.0,0.0,91,0.00,,,0.00,WeatherCatV1.14B232,2013-07-15 12:05:00,
2013-07-15 06:10:00,52.2,49.9,29.82,SSW,211,0.0,0.0,92,0.00,,,0.00,WeatherCatV1.14B232,2013-07-15 12:10:00,
2013-07-15 06:15:00,52.0,49.7,29.83,SSW,211,0.0,0.0,92,0.00,,,0.00,WeatherCatV1.14B232,2013-07-15 12:15:00,
2013-07-15 06:20:00,51.9,49.6,29.83,SSW,211,0.0,0.0,92,0.00,,,0.00,WeatherCatV1.14B232,2013-07-15 12:20:00,
2013-07-15 06:25:00,51.8,49.5,29.83,SSW,211,0.0,0.0,92,0.00,,,0.00,WeatherCatV1.14B232,2013-07-15 12:25:00,
2013-07-15 06:30:00,51.8,49.5,29.83,SSW,211,0.0,0.0,92,0.00,,,0.00,WeatherCatV1.14B232,2013-07-15 12:30:00,
2013-07-15 06:35:00,52.2,49.9,29.83,SSW,212,0.0,0.0,92,0.00,,,0.00,WeatherCatV1.14B232,2013-07-15 12:35:00,
2013-07-15 06:40:00,52.6,50.0,29.83,SSW,211,0.0,0.0,91,0.00,,,0.00,WeatherCatV1.14B232,2013-07-15 12:40:00,
2013-07-15 06:45:00,52.9,50.0,29.83,SW,228,1.0,1.0,90,0.00,,,0.00,WeatherCatV1.14B232,2013-07-15 12:45:00,
2013-07-15 06:50:00,53.2,50.0,29.83,SE,124,0.0,1.0,89,0.00,,,0.00,WeatherCatV1.14B232,2013-07-15 12:50:00,
2013-07-15 06:55:00,54.3,50.5,29.84,ESE,108,0.0,1.0,87,0.00,,,0.00,WeatherCatV1.14B232,2013-07-15 12:55:00,
2013-07-15 07:00:00,55.9,51.5,29.84,ESE,109,0.0,1.0,85,0.00,,,0.00,WeatherCatV1.14B232,2013-07-15 13:00:00,
2013-07-15 07:05:00,56.6,51.2,29.84,ESE,111,0.0,0.0,82,0.00,,,0.00,WeatherCatV1.14B232,2013-07-15 13:05:00,
2013-07-15 07:10:00,56.8,51.4,29.84,ESE,111,0.0,0.0,82,0.00,,,0.00,WeatherCatV1.14B232,2013-07-15 13:10:00,
2013-07-15 07:15:00,57.4,51.9,29.84,ESE,112,0.0,0.0,82,0.00,,,0.00,WeatherCatV1.14B232,2013-07-15 13:15:00,
2013-07-15 07:20:00,58.9,52.4,29.84,ESE,112,0.0,0.0,79,0.00,,,0.00,WeatherCatV1.14B232,2013-07-15 13:20:00,
2013-07-15 07:25:00,60.2,52.2,29.84,ESE,112,0.0,1.0,75,0.00,,,0.00,WeatherCatV1.14B232,2013-07-15 13:25:00,
2013-07-15 07:30:00,61.2,52.5,29.84,East,90,0.0,1.0,73,0.00,,,0.00,WeatherCatV1.14B232,2013-07-15 13:30:00,
2013-07-15 07:35:00,61.8,52.3,29.84,East,90,2.0,2.0,71,0.00,,,0.00,WeatherCatV1.14B232,2013-07-15 13:35:00,
2013-07-15 07:40:00,62.0,52.9,29.84,East,90,1.0,1.0,72,0.00,,,0.00,WeatherCatV1.14B232,2013-07-15 13:40:00,
2013-07-15 07:45:00,61.9,52.8,29.84,East,92,0.0,1.0,72,0.00,,,0.00,WeatherCatV1.14B232,2013-07-15 13:45:00,
2013-07-15 07:50:00,62.5,53.0,29.84,SSW,212,0.0,1.0,71,0.00,,,0.00,WeatherCatV1.14B232,2013-07-15 13:50:00,
2013-07-15 07:55:00,63.9,53.5,29.84,North,353,1.0,1.0,69,0.00,,,0.00,WeatherCatV1.14B232,2013-07-15 13:55:00,
2013-07-15 08:00:00,64.0,53.2,29.84,NNW,330,0.0,1.0,68,0.00,,,0.00,WeatherCatV1.14B232,2013-07-15 14:00:00,
2013-07-15 08:05:00,64.7,53.1,29.84,NE,53,0.0,1.0,66,0.00,,,0.00,WeatherCatV1.14B232,2013-07-15 14:05:00,
2013-07-15 08:10:00,65.2,53.1,29.84,East,91,0.0,0.0,65,0.00,,,0.00,WeatherCatV1.14B232,2013-07-15 14:10:00,
2013-07-15 08:15:00,65.9,53.4,29.83,East,88,0.0,1.0,64,0.00,,,0.00,WeatherCatV1.14B232,2013-07-15 14:15:00,
2013-07-15 08:20:00,66.7,53.3,29.83,East,95,1.0,2.0,62,0.00,,,0.00,WeatherCatV1.14B232,2013-07-15 14:20:00,
2013-07-15 08:25:00,67.4,53.9,29.83,East,83,2.0,2.0,62,0.00,,,0.00,WeatherCatV1.14B232,2013-07-15 14:25:00,
2013-07-15 08:30:00,68.0,53.6,29.83,East,84,0.0,0.0,60,0.00,,,0.00,WeatherCatV1.14B232,2013-07-15 14:30:00,
2013-07-15 08:35:00,68.4,53.0,29.83,NNE,25,0.0,1.0,58,0.00,,,0.00,WeatherCatV1.14B232,2013-07-15 14:35:00,
2013-07-15 08:40:00,68.8,52.9,29.83,NNW,345,0.0,1.0,57,0.00,,,0.00,WeatherCatV1.14B232,2013-07-15 14:40:00,
2013-07-15 08:45:00,68.6,53.2,29.83,NNW,335,0.0,2.0,58,0.00,,,0.00,WeatherCatV1.14B232,2013-07-15 14:45:00,
2013-07-15 08:50:00,68.5,54.1,29.82,East,84,0.0,1.0,60,0.00,,,0.00,WeatherCatV1.14B232,2013-07-15 14:50:00,
2013-07-15 08:55:00,69.4,54.9,29.82,East,84,0.0,1.0,60,0.00,,,0.00,WeatherCatV1.14B232,2013-07-15 14:55:00,
2013-07-15 09:00:00,70.1,53.2,29.82,NNW,340,1.0,3.0,55,0.00,,,0.00,WeatherCatV1.14B232,2013-07-15 15:00:00,
2013-07-15 09:05:00,69.9,53.5,29.82,ESE,115,1.0,1.0,56,0.00,,,0.00,WeatherCatV1.14B232,2013-07-15 15:05:00,
2013-07-15 09:10:00,70.8,53.8,29.81,East,82,0.0,1.0,55,0.00,,,0.00,WeatherCatV1.14B232,2013-07-15 15:10:00,
2013-07-15 09:15:00,71.7,53.1,29.81,ENE,76,0.0,1.0,52,0.00,,,0.00,WeatherCatV1.14B232,2013-07-15 15:15:00,
2013-07-15 09:20:00,71.4,53.9,29.81,ESE,105,0.0,1.0,54,0.00,,,0.00,WeatherCatV1.14B232,2013-07-15 15:20:00,
2013-07-15 09:25:00,72.6,53.4,29.81,NNW,338,1.0,1.0,51,0.00,,,0.00,WeatherCatV1.14B232,2013-07-15 15:25:00,
2013-07-15 09:26:00,72.7,53.0,29.81,NNW,340,1.0,1.0,50,0.00,,,0.00,WeatherCatV1.14B232,2013-07-15 15:26:00,
2013-07-15 09:31:00,72.4,52.1,29.81,NNW,336,0.0,2.0,49,0.00,,,0.00,WeatherCatV1.14B232,2013-07-15 15:31:00,
2013-07-15 09:36:00,72.9,51.5,29.81,ENE,61,0.0,0.0,47,0.00,,,0.00,WeatherCatV1.14B232,2013-07-15 15:36:00,
2013-07-15 09:41:00,73.4,52.5,29.80,NE,50,0.0,0.0,48,0.00,,,0.00,WeatherCatV1.14B232,2013-07-15 15:41:00,
2013-07-15 09:46:00,73.9,51.8,29.80,WSW,249,0.0,1.0,46,0.00,,,0.00,WeatherCatV1.14B232,2013-07-15 15:46:00,
2013-07-15 09:51:00,74.6,51.8,29.80,SSE,157,0.0,1.0,45,0.00,,,0.00,WeatherCatV1.14B232,2013-07-15 15:51:00,
2013-07-15 09:56:00,75.2,51.8,29.79,NE,34,0.0,2.0,44,0.00,,,0.00,WeatherCatV1.14B232,2013-07-15 15:56:00,
2013-07-15 10:01:00,76.0,52.5,29.79,SW,221,0.0,3.0,44,0.00,,,0.00,WeatherCatV1.14B232,2013-07-15 16:01:00,
2013-07-15 10:06:00,76.7,54.3,29.79,West,260,0.0,1.0,46,0.00,,,0.00,WeatherCatV1.14B232,2013-07-15 16:06:00,
2013-07-15 10:11:00,77.3,53.0,29.78,SSW,207,2.0,2.0,43,0.00,,,0.00,WeatherCatV1.14B232,2013-07-15 16:11:00,
2013-07-15 10:16:00,77.4,51.2,29.78,ENE,75,2.0,2.0,40,0.00,,,0.00,WeatherCatV1.14B232,2013-07-15 16:16:00,
2013-07-15 10:21:00,76.9,50.0,29.78,SSW,204,2.0,2.0,39,0.00,,,0.00,WeatherCatV1.14B232,2013-07-15 16:21:00,
2013-07-15 10:26:00,77.5,51.9,29.78,South,182,0.0,2.0,41,0.00,,,0.00,WeatherCatV1.14B232,2013-07-15 16:26:00,
2013-07-15 10:31:00,77.9,52.3,29.78,West,274,0.0,0.0,41,0.00,,,0.00,WeatherCatV1.14B232,2013-07-15 16:31:00,
2013-07-15 10:36:00,78.4,54.0,29.78,SW,222,1.0,2.0,43,0.00,,,0.00,WeatherCatV1.14B232,2013-07-15 16:36:00,
2013-07-15 10:41:00,78.6,52.9,29.77,South,191,1.0,2.0,41,0.00,,,0.00,WeatherCatV1.14B232,2013-07-15 16:41:00,
2013-07-15 10:46:00,78.9,52.5,29.77,WSW,256,0.0,0.0,40,0.00,,,0.00,WeatherCatV1.14B232,2013-07-15 16:46:00,
2013-07-15 10:51:00,78.7,51.6,29.77,West,259,2.0,2.0,39,0.00,,,0.00,WeatherCatV1.14B232,2013-07-15 16:51:00,
2013-07-15 10:56:00,79.6,51.7,29.76,WSW,242,1.0,2.0,38,0.00,,,0.00,WeatherCatV1.14B232,2013-07-15 16:56:00,
2013-07-15 11:01:00,79.9,52.0,29.77,NNE,23,0.0,2.0,38,0.00,,,0.00,WeatherCatV1.14B232,2013-07-15 17:01:00,
2013-07-15 11:06:00,80.5,51.1,29.76,WSW,238,0.0,1.0,36,0.00,,,0.00,WeatherCatV1.14B232,2013-07-15 17:06:00,
2013-07-15 11:11:00,81.2,50.1,29.76,NNE,22,0.0,2.0,34,0.00,,,0.00,WeatherCatV1.14B232,2013-07-15 17:11:00,
2013-07-15 11:16:00,80.9,49.1,29.76,NNW,335,0.0,4.0,33,0.00,,,0.00,WeatherCatV1.14B232,2013-07-15 17:16:00,
2013-07-15 11:21:00,81.0,51.5,29.75,WSW,256,1.0,1.0,36,0.00,,,0.00,WeatherCatV1.14B232,2013-07-15 17:21:00,
2013-07-15 11:26:00,81.8,50.7,29.75,WSW,246,1.0,3.0,34,0.00,,,0.00,WeatherCatV1.14B232,2013-07-15 17:26:00,
2013-07-15 11:31:00,82.4,52.0,29.75,NNE,32,1.0,4.0,35,0.00,,,0.00,WeatherCatV1.14B232,2013-07-15 17:31:00,
2013-07-15 11:36:00,83.7,51.5,29.75,ENE,71,2.0,2.0,33,0.00,,,0.00,WeatherCatV1.14B232,2013-07-15 17:36:00,
2013-07-15 11:41:00,83.0,50.9,29.75,East,86,3.0,4.0,33,0.00,,,0.00,WeatherCatV1.14B232,2013-07-15 17:41:00,
2013-07-15 11:46:00,82.3,50.3,29.74,West,270,0.0,2.0,33,0.00,,,0.00,WeatherCatV1.14B232,2013-07-15 17:46:00,
2013-07-15 11:51:00,82.5,49.6,29.74,West,271,1.0,3.0,32,0.00,,,0.00,WeatherCatV1.14B232,2013-07-15 17:51:00,
2013-07-15 11:56:00,82.8,50.7,29.74,WSW,243,1.0,2.0,33,0.00,,,0.00,WeatherCatV1.14B232,2013-07-15 17:56:00,
2013-07-15 12:01:00,84.0,50.9,29.73,South,177,2.0,3.0,32,0.00,,,0.00,WeatherCatV1.14B232,2013-07-15 18:01:00,
2013-07-15 12:06:00,84.8,49.9,29.73,WNW,285,0.0,1.0,30,0.00,,,0.00,WeatherCatV1.14B232,2013-07-15 18:06:00,
2013-07-15 12:11:00,85.8,49.8,29.73,West,277,0.0,2.0,29,0.00,,,0.00,WeatherCatV1.14B232,2013-07-15 18:11:00,
2013-07-15 12:16:00,86.4,48.4,29.72,NE,47,1.0,3.0,27,0.00,,,0.00,WeatherCatV1.14B232,2013-07-15 18:16:00,
2013-07-15 12:21:00,86.3,51.2,29.72,West,270,0.0,2.0,30,0.00,,,0.00,WeatherCatV1.14B232,2013-07-15 18:21:00,
2013-07-15 12:26:00,86.0,49.1,29.72,NE,34,1.0,2.0,28,0.00,,,0.00,WeatherCatV1.14B232,2013-07-15 18:26:00,
2013-07-15 12:31:00,85.6,47.8,29.71,East,85,4.0,6.0,27,0.00,,,0.00,WeatherCatV1.14B232,2013-07-15 18:31:00,
2013-07-15 12:36:00,84.4,49.5,29.71,ESE,108,1.0,3.0,30,0.00,,,0.00,WeatherCatV1.14B232,2013-07-15 18:36:00,
2013-07-15 12:41:00,84.2,49.4,29.70,ESE,106,2.0,3.0,30,0.00,,,0.00,WeatherCatV1.14B232,2013-07-15 18:41:00,
2013-07-15 12:46:00,84.1,49.3,29.70,SSE,148,0.0,3.0,30,0.00,,,0.00,WeatherCatV1.14B232,2013-07-15 18:46:00,
2013-07-15 12:51:00,84.9,50.9,29.70,East,81,1.0,2.0,31,0.00,,,0.00,WeatherCatV1.14B232,2013-07-15 18:51:00,
2013-07-15 12:56:00,85.6,49.7,29.69,NE,44,1.0,4.0,29,0.00,,,0.00,WeatherCatV1.14B232,2013-07-15 18:56:00,
2013-07-15 13:01:00,86.2,50.2,29.69,East,94,2.0,4.0,29,0.00,,,0.00,WeatherCatV1.14B232,2013-07-15 19:01:00,
2013-07-15 13:06:00,85.8,49.8,29.69,SSE,147,0.0,4.0,29,0.00,,,0.00,WeatherCatV1.14B232,2013-07-15 19:06:00,
2013-07-15 13:11:00,86.4,51.3,29.68,East,85,1.0,4.0,30,0.00,,,0.00,WeatherCatV1.14B232,2013-07-15 19:11:00,
2013-07-15 13:16:00,87.0,50.9,29.68,West,262,1.0,4.0,29,0.00,,,0.00,WeatherCatV1.14B232,2013-07-15 19:16:00,
2013-07-15 13:21:00,87.4,50.3,29.67,SSE,152,2.0,3.0,28,0.00,,,0.00,WeatherCatV1.14B232,2013-07-15 19:21:00,
2013-07-15 13:26:00,88.2,48.9,29.67,ESE,106,2.0,6.0,26,0.00,,,0.00,WeatherCatV1.14B232,2013-07-15 19:26:00,
2013-07-15 13:31:00,87.7,47.5,29.66,WNW,291,1.0,2.0,25,0.00,,,0.00,WeatherCatV1.14B232,2013-07-15 19:31:00,
2013-07-15 13:36:00,88.8,50.5,29.66,East,90,1.0,4.0,27,0.00,,,0.00,WeatherCatV1.14B232,2013-07-15 19:36:00,
2013-07-15 13:41:00,88.6,46.0,29.66,South,187,3.0,4.0,23,0.00,,,0.00,WeatherCatV1.14B232,2013-07-15 19:41:00,
2013-07-15 13:46:00,89.0,48.6,29.66,East,81,3.0,7.0,25,0.00,,,0.00,WeatherCatV1.14B232,2013-07-15 19:46:00,
2013-07-15 13:51:00,89.0,48.6,29.65,SSE,161,2.0,3.0,25,0.00,,,0.00,WeatherCatV1.14B232,2013-07-15 19:51:00,
2013-07-15 13:56:00,89.2,45.3,29.65,WSW,240,2.0,2.0,22,0.00,,,0.00,WeatherCatV1.14B232,2013-07-15 19:56:00,
2013-07-15 14:01:00,89.3,45.4,29.65,South,188,4.0,4.0,22,0.00,,,0.00,WeatherCatV1.14B232,2013-07-15 20:01:00,
2013-07-15 14:06:00,89.3,45.4,29.64,West,273,2.0,3.0,22,0.00,,,0.00,WeatherCatV1.14B232,2013-07-15 20:06:00,
2013-07-15 14:11:00,89.8,44.6,29.64,WSW,257,2.0,5.0,21,0.00,,,0.00,WeatherCatV1.14B232,2013-07-15 20:11:00,
2013-07-15 14:16:00,88.7,43.7,29.64,NW,319,0.0,3.0,21,0.00,,,0.00,WeatherCatV1.14B232,2013-07-15 20:16:00,
2013-07-15 14:21:00,89.6,44.5,29.64,ESE,108,1.0,3.0,21,0.00,,,0.00,WeatherCatV1.14B232,2013-07-15 20:21:00,
2013-07-15 14:26:00,90.1,44.9,29.63,East,91,1.0,2.0,21,0.00,,,0.00,WeatherCatV1.14B232,2013-07-15 20:26:00,
2013-07-15 14:31:00,90.4,45.1,29.63,SW,228,1.0,4.0,21,0.00,,,0.00,WeatherCatV1.14B232,2013-07-15 20:31:00,
2013-07-15 14:36:00,91.1,44.4,29.63,South,174,1.0,3.0,20,0.00,,,0.00,WeatherCatV1.14B232,2013-07-15 20:36:00,
2013-07-15 14:41:00,91.0,44.3,29.63,WSW,250,2.0,2.0,20,0.00,,,0.00,WeatherCatV1.14B232,2013-07-15 20:41:00,
2013-07-15 14:46:00,90.5,42.6,29.62,ENE,57,2.0,3.0,19,0.00,,,0.00,WeatherCatV1.14B232,2013-07-15 20:46:00,
2013-07-15 14:51:00,90.5,46.4,29.62,SSE,150,1.0,4.0,22,0.00,,,0.00,WeatherCatV1.14B232,2013-07-15 20:51:00,
2013-07-15 14:56:00,91.1,44.4,29.62,West,263,0.0,1.0,20,0.00,,,0.00,WeatherCatV1.14B232,2013-07-15 20:56:00,
2013-07-15 15:01:00,91.7,46.2,29.61,NE,44,4.0,6.0,21,0.00,,,0.00,WeatherCatV1.14B232,2013-07-15 21:01:00,
2013-07-15 15:06:00,91.1,44.4,29.61,WSW,246,0.0,4.0,20,0.00,,,0.00,WeatherCatV1.14B232,2013-07-15 21:06:00,
2013-07-15 15:11:00,90.6,46.5,29.61,ESE,106,1.0,4.0,22,0.00,,,0.00,WeatherCatV1.14B232,2013-07-15 21:11:00,
2013-07-15 15:16:00,90.5,46.4,29.61,SE,125,1.0,2.0,22,0.00,,,0.00,WeatherCatV1.14B232,2013-07-15 21:16:00,
2013-07-15 15:21:00,91.0,44.3,29.60,East,92,0.0,3.0,20,0.00,,,0.00,WeatherCatV1.14B232,2013-07-15 21:21:00,
2013-07-15 15:26:00,91.8,45.0,29.60,NNE,27,4.0,4.0,20,0.00,,,0.00,WeatherCatV1.14B232,2013-07-15 21:26:00,
2013-07-15 15:31:00,91.3,45.8,29.60,NNW,347,4.0,7.0,21,0.00,,,0.00,WeatherCatV1.14B232,2013-07-15 21:31:00,
2013-07-15 15:36:00,91.0,46.8,29.60,NNW,347,3.0,3.0,22,0.00,,,0.00,WeatherCatV1.14B232,2013-07-15 21:36:00,
2013-07-15 15:41:00,90.8,44.2,29.59,North,11,2.0,7.0,20,0.00,,,0.00,WeatherCatV1.14B232,2013-07-15 21:41:00,
2013-07-15 15:46:00,90.4,48.7,29.59,NE,49,2.0,2.0,24,0.00,,,0.00,WeatherCatV1.14B232,2013-07-15 21:46:00,
2013-07-15 15:51:00,89.9,49.3,29.59,NNW,336,3.0,13.0,25,0.00,,,0.00,WeatherCatV1.14B232,2013-07-15 21:51:00,
2013-07-15 15:56:00,88.3,49.0,29.59,North,351,9.0,11.0,26,0.00,,,0.00,WeatherCatV1.14B232,2013-07-15 21:56:00,
2013-07-15 16:01:00,87.3,49.2,29.59,North,1,6.0,10.0,27,0.00,,,0.00,WeatherCatV1.14B232,2013-07-15 22:01:00,
2013-07-15 16:06:00,86.8,48.8,29.59,NNW,335,4.0,12.0,27,0.00,,,0.00,WeatherCatV1.14B232,2013-07-15 22:06:00,
2013-07-15 16:11:00,86.6,48.6,29.59,NNW,334,12.0,12.0,27,0.00,,,0.00,WeatherCatV1.14B232,2013-07-15 22:11:00,
2013-07-15 16:16:00,86.4,49.4,29.59,North,353,4.0,7.0,28,0.00,,,0.00,WeatherCatV1.14B232,2013-07-15 22:16:00,
2013-07-15 16:21:00,86.1,48.2,29.59,NW,305,5.0,8.0,27,0.00,,,0.00,WeatherCatV1.14B232,2013-07-15 22:21:00,
2013-07-15 16:26:00,86.1,48.2,29.59,NNW,343,4.0,7.0,27,0.00,,,0.00,WeatherCatV1.14B232,2013-07-15 22:26:00,
2013-07-15 16:31:00,86.1,50.1,29.59,NNE,22,4.0,7.0,29,0.00,,,0.00,WeatherCatV1.14B232,2013-07-15 22:31:00,
2013-07-15 16:36:00,85.7,48.8,29.59,NE,41,10.0,18.0,28,0.00,,,0.00,WeatherCatV1.14B232,2013-07-15 22:36:00,
2013-07-15 16:41:00,85.0,49.1,29.59,NNE,22,9.0,11.0,29,0.00,,,0.00,WeatherCatV1.14B232,2013-07-15 22:41:00,
2013-07-15 16:46:00,85.5,46.7,29.59,North,6,10.0,13.0,26,0.00,,,0.00,WeatherCatV1.14B232,2013-07-15 22:46:00,
2013-07-15 16:51:00,84.7,48.9,29.59,NE,41,4.0,10.0,29,0.00,,,0.00,WeatherCatV1.14B232,2013-07-15 22:51:00,
2013-07-15 16:56:00,84.0,47.4,29.60,West,280,3.0,7.0,28,0.00,,,0.00,WeatherCatV1.14B232,2013-07-15 22:56:00,
2013-07-15 17:01:00,83.6,49.7,29.61,East,101,2.0,4.0,31,0.00,,,0.00,WeatherCatV1.14B232,2013-07-15 23:01:00,
2013-07-15 17:06:00,83.3,48.6,29.61,NW,322,1.0,6.0,30,0.00,,,0.00,WeatherCatV1.14B232,2013-07-15 23:06:00,
2013-07-15 17:11:00,83.3,48.6,29.61,North,8,3.0,6.0,30,0.00,,,0.00,WeatherCatV1.14B232,2013-07-15 23:11:00,
2013-07-15 17:16:00,82.8,50.7,29.61,North,6,4.0,7.0,33,0.00,,,0.00,WeatherCatV1.14B232,2013-07-15 23:16:00,
2013-07-15 17:21:00,80.8,52.8,29.62,East,98,0.0,4.0,38,0.00,,,0.00,WeatherCatV1.14B232,2013-07-15 23:21:00,
2013-07-15 17:26:00,80.0,51.4,29.63,ESE,113,0.0,3.0,37,0.00,,,0.00,WeatherCatV1.14B232,2013-07-15 23:26:00,
2013-07-15 17:31:00,79.7,51.8,29.63,SSE,159,1.0,2.0,38,0.00,,,0.00,WeatherCatV1.14B232,2013-07-15 23:31:00,
2013-07-15 17:36:00,79.7,51.8,29.64,South,170,9.0,11.0,38,0.00,,,0.00,WeatherCatV1.14B232,2013-07-15 23:36:00,
2013-07-15 17:41:00,79.8,51.2,29.64,SE,142,3.0,8.0,37,0.00,,,0.00,WeatherCatV1.14B232,2013-07-15 23:41:00,
2013-07-15 17:46:00,79.9,50.5,29.65,ESE,113,11.0,12.0,36,0.00,,,0.00,WeatherCatV1.14B232,2013-07-15 23:46:00,
2013-07-15 17:51:00,79.6,51.0,29.66,SSW,212,1.0,3.0,37,0.00,,,0.00,WeatherCatV1.14B232,2013-07-15 23:51:00,
2013-07-15 17:56:00,79.4,51.6,29.66,North,351,7.0,15.0,38,0.00,,,0.00,WeatherCatV1.14B232,2013-07-15 23:56:00,
2013-07-15 18:01:00,78.6,52.2,29.67,ESE,119,5.0,10.0,40,0.00,,,0.00,WeatherCatV1.14B232,2013-07-16 00:01:00,
2013-07-15 18:06:00,77.2,52.9,29.67,WSW,245,0.0,7.0,43,0.00,,,0.00,WeatherCatV1.14B232,2013-07-16 00:06:00,
2013-07-15 18:11:00,76.5,52.9,29.67,North,354,6.0,9.0,44,0.00,,,0.00,WeatherCatV1.14B232,2013-07-16 00:11:00,
2013-07-15 18:16:00,76.0,52.5,29.67,NNE,12,3.0,8.0,44,0.00,,,0.00,WeatherCatV1.14B232,2013-07-16 00:16:00,
2013-07-15 18:21:00,75.8,52.9,29.68,South,169,1.0,3.0,45,0.00,,,0.00,WeatherCatV1.14B232,2013-07-16 00:21:00,
2013-07-15 18:26:00,75.8,51.1,29.68,SE,137,4.0,7.0,42,0.00,,,0.00,WeatherCatV1.14B232,2013-07-16 00:26:00,
2013-07-15 18:31:00,76.0,51.2,29.68,West,266,1.0,6.0,42,0.00,,,0.00,WeatherCatV1.14B232,2013-07-16 00:31:00,
2013-07-15 18:36:00,76.2,52.0,29.67,SSE,152,1.0,2.0,43,0.00,,,0.00,WeatherCatV1.14B232,2013-07-16 00:36:00,
2013-07-15 18:41:00,76.3,52.1,29.67,SSW,197,6.0,8.0,43,0.00,,,0.00,WeatherCatV1.14B232,2013-07-16 00:41:00,
2013-07-15 18:46:00,76.1,52.6,29.67,SW,236,2.0,5.0,44,0.00,,,0.00,WeatherCatV1.14B232,2013-07-16 00:46:00,
2013-07-15 18:50:00,75.7,52.2,29.66,WSW,245,2.0,12.0,44,0.00,,,0.00,WeatherCatV1.14B232,2013-07-16 00:50:00,
2013-07-15 18:55:00,75.3,53.1,29.66,West,262,4.0,7.0,46,0.00,,,0.00,WeatherCatV1.14B232,2013-07-16 00:55:00,
2013-07-15 19:00:00,74.9,53.3,29.65,West,268,2.0,4.0,47,0.00,,,0.00,WeatherCatV1.14B232,2013-07-16 01:00:00,
2013-07-15 19:05:00,74.8,52.6,29.65,SSE,162,2.0,7.0,46,0.00,,,0.00,WeatherCatV1.14B232,2013-07-16 01:05:00,
2013-07-15 19:10:00,74.6,53.6,29.64,ESE,108,1.0,6.0,48,0.00,,,0.00,WeatherCatV1.14B232,2013-07-16 01:10:00,
2013-07-15 19:15:00,74.4,54.0,29.64,ESE,106,0.0,1.0,49,0.00,,,0.00,WeatherCatV1.14B232,2013-07-16 01:15:00,
2013-07-15 19:20:00,74.3,53.9,29.64,ENE,74,0.0,2.0,49,0.00,,,0.00,WeatherCatV1.14B232,2013-07-16 01:20:00,
2013-07-15 19:25:00,74.2,54.3,29.65,ESE,104,2.0,2.0,50,0.00,,,0.00,WeatherCatV1.14B232,2013-07-16 01:25:00,
2013-07-15 19:30:00,74.2,54.3,29.65,North,11,2.0,2.0,50,0.00,,,0.00,WeatherCatV1.14B232,2013-07-16 01:30:00,
2013-07-15 19:35:00,73.9,54.6,29.65,ENE,57,0.0,5.0,51,0.00,,,0.00,WeatherCatV1.14B232,2013-07-16 01:35:00,
2013-07-15 19:40:00,73.5,54.8,29.65,SE,144,0.0,1.0,52,0.00,,,0.00,WeatherCatV1.14B232,2013-07-16 01:40:00,
2013-07-15 19:45:00,73.3,54.6,29.66,NNW,335,0.0,1.0,52,0.00,,,0.00,WeatherCatV1.14B232,2013-07-16 01:45:00,
2013-07-15 19:50:00,72.9,54.2,29.66,ENE,70,0.0,3.0,52,0.00,,,0.00,WeatherCatV1.14B232,2013-07-16 01:50:00,
2013-07-15 19:55:00,72.5,54.9,29.66,NE,47,2.0,6.0,54,0.00,,,0.00,WeatherCatV1.14B232,2013-07-16 01:55:00,
2013-07-15 20:00:00,72.0,54.9,29.66,NNE,18,0.0,1.0,55,0.00,,,0.00,WeatherCatV1.14B232,2013-07-16 02:00:00,
2013-07-15 20:05:00,71.7,55.2,29.66,NNE,19,0.0,0.0,56,0.00,,,0.00,WeatherCatV1.14B232,2013-07-16 02:05:00,
2013-07-15 20:10:00,71.6,55.5,29.66,ESE,120,0.0,0.0,57,0.00,,,0.00,WeatherCatV1.14B232,2013-07-16 02:10:00,
2013-07-15 20:15:00,71.3,55.3,29.67,NNE,31,1.0,1.0,57,0.00,,,0.00,WeatherCatV1.14B232,2013-07-16 02:15:00,
2013-07-15 20:20:00,71.1,54.6,29.67,East,86,1.0,1.0,56,0.00,,,0.00,WeatherCatV1.14B232,2013-07-16 02:20:00,
2013-07-15 20:25:00,71.0,55.0,29.67,East,84,1.0,1.0,57,0.00,,,0.00,WeatherCatV1.14B232,2013-07-16 02:25:00,
2013-07-15 20:30:00,70.9,54.4,29.67,ESE,103,0.0,2.0,56,0.00,,,0.00,WeatherCatV1.14B232,2013-07-16 02:30:00,
2013-07-15 20:35:00,70.8,54.3,29.67,East,97,0.0,2.0,56,0.00,,,0.00,WeatherCatV1.14B232,2013-07-16 02:35:00,
2013-07-15 20:40:00,70.6,54.1,29.67,ENE,65,0.0,1.0,56,0.00,,,0.00,WeatherCatV1.14B232,2013-07-16 02:40:00,
2013-07-15 20:45:00,70.2,54.7,29.67,SSE,158,2.0,2.0,58,0.00,,,0.00,WeatherCatV1.14B232,2013-07-16 02:45:00,
2013-07-15 20:50:00,69.4,54.9,29.67,South,174,1.0,1.0,60,0.00,,,0.00,WeatherCatV1.14B232,2013-07-16 02:50:00,
2013-07-15 20:55:00,68.9,54.4,29.68,SSW,200,0.0,2.0,60,0.00,,,0.00,WeatherCatV1.14B232,2013-07-16 02:55:00,
2013-07-15 21:00:00,68.6,54.6,29.68,ESE,114,0.0,1.0,61,0.00,,,0.00,WeatherCatV1.14B232,2013-07-16 03:00:00,
2013-07-15 21:05:00,68.3,54.8,29.68,ESE,115,0.0,0.0,62,0.00,,,0.00,WeatherCatV1.14B232,2013-07-16 03:05:00,
2013-07-15 21:10:00,68.1,54.6,29.68,South,187,1.0,3.0,62,0.00,,,0.00,WeatherCatV1.14B232,2013-07-16 03:10:00,
2013-07-15 21:15:00,67.8,54.7,29.69,South,177,2.0,2.0,63,0.00,,,0.00,WeatherCatV1.14B232,2013-07-16 03:15:00,
2013-07-15 21:20:00,67.5,54.9,29.69,SSE,165,1.0,2.0,64,0.00,,,0.00,WeatherCatV1.14B232,2013-07-16 03:20:00,
2013-07-15 21:25:00,67.4,54.8,29.69,SSW,205,0.0,1.0,64,0.00,,,0.00,WeatherCatV1.14B232,2013-07-16 03:25:00,
2013-07-15 21:30:00,67.2,55.0,29.69,SW,214,0.0,2.0,65,0.00,,,0.00,WeatherCatV1.14B232,2013-07-16 03:30:00,
2013-07-15 21:35:00,67.0,54.8,29.69,South,181,0.0,1.0,65,0.00,,,0.00,WeatherCatV1.14B232,2013-07-16 03:35:00,
2013-07-15 21:41:00,66.8,55.1,29.69,SSE,152,0.0,0.0,66,0.00,,,0.00,WeatherCatV1.14B232,2013-07-16 03:41:00,
2013-07-15 21:46:00,66.7,55.0,29.69,SSE,160,0.0,1.0,66,0.00,,,0.00,WeatherCatV1.14B232,2013-07-16 03:46:00,
2013-07-15 21:51:00,66.5,55.2,29.69,SW,219,1.0,1.0,67,0.00,,,0.00,WeatherCatV1.14B232,2013-07-16 03:51:00,
2013-07-15 21:56:00,66.4,55.1,29.70,SSE,160,0.0,1.0,67,0.00,,,0.00,WeatherCatV1.14B232,2013-07-16 03:56:00,
2013-07-15 22:01:00,66.4,55.1,29.70,SSW,198,0.0,1.0,67,0.00,,,0.00,WeatherCatV1.14B232,2013-07-16 04:01:00,
2013-07-15 22:06:00,66.3,55.0,29.71,SSW,197,0.0,0.0,67,0.00,,,0.00,WeatherCatV1.14B232,2013-07-16 04:06:00,
2013-07-15 22:11:00,66.0,54.7,29.71,WNW,285,0.0,0.0,67,0.00,,,0.00,WeatherCatV1.14B232,2013-07-16 04:11:00,
2013-07-15 22:17:00,65.9,54.2,29.71,WNW,296,0.0,0.0,66,0.00,,,0.00,WeatherCatV1.14B232,2013-07-16 04:17:00,
2013-07-15 22:22:00,65.6,54.3,29.71,WNW,297,0.0,0.0,67,0.00,,,0.00,WeatherCatV1.14B232,2013-07-16 04:22:00,
2013-07-15 22:27:00,65.4,54.1,29.72,NW,309,0.0,1.0,67,0.00,,,0.00,WeatherCatV1.14B232,2013-07-16 04:27:00,
2013-07-15 22:32:00,65.2,54.0,29.72,NW,309,0.0,0.0,67,0.00,,,0.00,WeatherCatV1.14B232,2013-07-16 04:32:00,
2013-07-15 22:37:00,65.0,54.6,29.72,NW,308,0.0,0.0,69,0.00,,,0.00,WeatherCatV1.14B232,2013-07-16 04:37:00,
2013-07-15 22:42:00,64.8,54.8,29.72,WNW,302,0.0,0.0,70,0.00,,,0.00,WeatherCatV1.14B232,2013-07-16 04:42:00,
2013-07-15 22:47:00,64.5,54.5,29.73,SSW,203,0.0,0.0,70,0.00,,,0.00,WeatherCatV1.14B232,2013-07-16 04:47:00,
2013-07-15 22:52:00,64.5,54.1,29.73,SSW,203,0.0,0.0,69,0.00,,,0.00,WeatherCatV1.14B232,2013-07-16 04:52:00,
2013-07-15 22:57:00,64.4,54.4,29.73,SSW,203,0.0,0.0,70,0.00,,,0.00,WeatherCatV1.14B232,2013-07-16 04:57:00,
2013-07-15 23:02:00,64.6,54.2,29.73,East,91,0.0,1.0,69,0.00,,,0.00,WeatherCatV1.14B232,2013-07-16 05:02:00,
2013-07-15 23:07:00,64.7,54.7,29.73,East,91,0.0,0.0,70,0.00,,,0.00,WeatherCatV1.14B232,2013-07-16 05:07:00,
2013-07-15 23:12:00,64.6,55.0,29.73,East,91,0.0,0.0,71,0.00,,,0.00,WeatherCatV1.14B232,2013-07-16 05:12:00,
2013-07-15 23:17:00,64.6,55.0,29.73,SE,129,0.0,0.0,71,0.00,,,0.00,WeatherCatV1.14B232,2013-07-16 05:17:00,
2013-07-15 23:22:00,64.3,54.3,29.73,SE,129,0.0,0.0,70,0.00,,,0.00,WeatherCatV1.14B232,2013-07-16 05:22:00,
2013-07-15 23:27:00,63.9,53.5,29.73,SE,130,0.0,0.0,69,0.00,,,0.00,WeatherCatV1.14B232,2013-07-16 05:27:00,
2013-07-15 23:32:00,63.5,53.5,29.73,SE,129,0.0,0.0,70,0.00,,,0.00,WeatherCatV1.14B232,2013-07-16 05:32:00,
2013-07-15 23:37:00,63.4,53.4,29.73,SE,128,0.0,0.0,70,0.00,,,0.00,WeatherCatV1.14B232,2013-07-16 05:37:00,
2013-07-15 23:42:00,63.4,53.8,29.73,SSW,211,0.0,1.0,71,0.00,,,0.00,WeatherCatV1.14B232,2013-07-16 05:42:00,
2013-07-15 23:47:00,63.3,53.7,29.73,SSE,163,0.0,0.0,71,0.00,,,0.00,WeatherCatV1.14B232,2013-07-16 05:47:00,
2013-07-15 23:52:00,63.3,54.1,29.73,South,170,0.0,0.0,72,0.00,,,0.00,WeatherCatV1.14B232,2013-07-16 05:52:00,
2013-07-15 23:57:00,63.1,53.5,29.73,South,170,0.0,0.0,71,0.00,,,0.00,WeatherCatV1.14B232,2013-07-16 05:57:00,